This is the latest recevied weather packets stored in our database for station/object N3WXO-1. If no packets are shown the sender has not sent any weather packets the latest 10 day(s).
| Time | Temp. | Humidity | Pressure | Rain* | Wind** | Luminosity | Snow |
|---|---|---|---|---|---|---|---|
| 1777749323 | 13.33° C | 46% | 1012.2 hPa | 0 mm | - | 241 W/m² | - |
| 1777749024 | 13.33° C | 43% | 1012.2 hPa | 0 mm | - | 169 W/m² | - |
| 1777748720 | 13.89° C | 46% | 1012.2 hPa | 0 mm | - | 172 W/m² | - |
| 1777748417 | 13.89° C | 46% | 1012.2 hPa | 0 mm | - | 169 W/m² | - |
| 1777748133 | 13.33° C | 46% | 1012.3 hPa | 0 mm | - | 237 W/m² | - |
| 1777747831 | 13.33° C | 48% | 1012.3 hPa | 0 mm | - | 213 W/m² | - |
| 1777747527 | 13.89° C | 43% | 1012.3 hPa | 0 mm | - | 188 W/m² | - |
| 1777747222 | 13.89° C | 43% | 1012.4 hPa | 0 mm | - | 232 W/m² | - |
| 1777746923 | 13.89° C | 43% | 1012.4 hPa | 0 mm | - | 229 W/m² | - |
| 1777746618 | 13.89° C | 47% | 1012.5 hPa | 0 mm | - | 322 W/m² | - |
| 1777746334 | 13.89° C | 43% | 1012.3 hPa | 0 mm | - | 248 W/m² | - |
| 1777746030 | 13.33° C | 42% | 1012.4 hPa | 0 mm | - | 1023 W/m² | - |
| 1777745726 | 13.33° C | 44% | 1012.6 hPa | 0 mm | - | 257 W/m² | - |
| 1777745422 | 13.33° C | 44% | 1012.5 hPa | 0 mm | - | 153 W/m² | - |
| 1777745118 | 13.89° C | 45% | 1012.5 hPa | 0 mm | - | 158 W/m² | - |
| 1777744819 | 13.33° C | 45% | 1012.4 hPa | 0 mm | - | 1044 W/m² | - |
| 1777744536 | 13.33° C | 45% | 1012.4 hPa | 0 mm | - | 323 W/m² | - |
| 1777744232 | 13.33° C | 49% | 1012.3 hPa | 0 mm | - | 339 W/m² | - |
| 1777743927 | 13.33° C | 44% | 1012.6 hPa | 0 mm | - | 211 W/m² | - |
| 1777743623 | 13.89° C | 43% | 1012.6 hPa | 0 mm | - | 218 W/m² | - |
| 1777743318 | 13.89° C | 45% | 1012.5 hPa | 0 mm | - | 1035 W/m² | - |
| 1777743035 | 13.33° C | 47% | 1012.7 hPa | 0 mm | - | 1051 W/m² | - |
| 1777742733 | 13.33° C | 46% | 1012.6 hPa | 0 mm | - | 316 W/m² | - |
| 1777742431 | 13.33° C | 46% | 1012.7 hPa | 0 mm | - | 220 W/m² | - |
| 1777742127 | 13.89° C | 45% | 1012.6 hPa | 0 mm | - | 171 W/m² | - |
* Rain latest hour (hover to see other rain measurements)
** Current wind speed in m/s (hover to see current wind gust speed)